Wolf Point, MT

12:42 AM MST on February 23, 2018 (GMT -0700)
Clayton

Weather History for KOLF - August, 2014

Change the Weather History Date:

Sunday, August 10, 2014

  Actual Average Record
Temperature  
Mean Temperature 67 °F -  
Max Temperature 85 °F 87 °F 98 °F (1999)
Min Temperature 49 °F 55 °F 39 °F (2001)
Degree Days  
Heating Degree Days 0    
Cooling Degree Days 2    
Growing Degree Days 17 (Base 50)    
Moisture  
Dew Point 45 °F    
Average Humidity 48    
Maximum Humidity 77    
Minimum Humidity 22    
Precipitation  
Precipitation 0.00 in 0.05 in 0.10 in (2005)
Month to date precipitation 0.44 0.50  
Year to date precipitation 5.61 8.89  
Sea Level Pressure  
Sea Level Pressure 30.21 in    
Wind  
Wind Speed 1 mph (East)    
Max Wind Speed 10 mph    
Max Gust Speed -    
Visibility 10 miles    
Events      
T = Trace of Precipitation, MM = Missing Value Source: NWS Daily Summary

Daily Weather History Graph

Daily Weather History Graph

Search for Another Location

Airport or City:

Trip Planner

Search our weather history database for the weather conditions in past years. The results will help you decide how hot, cold, wet, or windy it might be!

Date:

Astronomy

Aug. 10, 2014 Rise Set
Actual Time 5:50 AM MDT 8:24 PM MDT
Civil Twilight 5:15 AM MDT 8:58 PM MDT
Nautical Twilight 4:30 AM MDT 9:43 PM MDT
Astronomical Twilight 3:39 AM MDT 10:34 PM MDT
Moon 8:05 PM MDT (8/10) 5:49 AM MDT (8/10)
Length of Visible Light 15h 43m
Length of Day
14h 33m
Full, 100% of the Moon is Illuminated
Aug 10
Full
Aug 10
Full
Aug 17
Last Quarter
Aug 25
New
Sep 2
First Quarter

Hourly Weather History & Observations

Time (MDT) Temp. Dew Point Humidity Pressure Visibility Wind Dir Wind Speed Gust Speed Precip Events Conditions
12:53 AM 57.0 °F 46.0 °F 67% 30.19 in 10.0 mi Calm Calm - N/A   Clear
1:53 AM 55.0 °F 46.0 °F 72% 30.19 in 10.0 mi Calm Calm - N/A   Clear
2:53 AM 51.8 °F 42.8 °F 71% 30.22 in 10.0 mi Calm Calm - N/A   Clear
3:53 AM 52.0 °F 44.1 °F 74% 30.22 in 10.0 mi Calm Calm - N/A   Scattered Clouds
4:53 AM 50.0 °F 43.0 °F 77% 30.22 in 10.0 mi Calm Calm - N/A   Partly Cloudy
5:53 AM 50.0 °F 42.8 °F 76% 30.25 in 10.0 mi Calm Calm - N/A   Clear
6:53 AM 54.0 °F 46.0 °F 75% 30.26 in 10.0 mi Calm Calm - N/A   Clear
7:53 AM 57.2 °F 48.2 °F 72% 30.27 in 10.0 mi Calm Calm - N/A   Clear
8:53 AM 64.9 °F 48.0 °F 54% 30.26 in 10.0 mi Calm Calm - N/A   Clear
9:53 AM 70.0 °F 48.9 °F 47% 30.25 in 10.0 mi South 3.5 mph - N/A   Clear
10:53 AM 73.9 °F 46.9 °F 38% 30.25 in 10.0 mi Variable 3.5 mph - N/A   Clear
11:53 AM 77.0 °F 45.0 °F 32% 30.23 in 10.0 mi Calm Calm - N/A   Clear
12:53 PM 81.0 °F 44.1 °F 27% 30.22 in 10.0 mi Variable 3.5 mph - N/A   Clear
1:53 PM 82.0 °F 44.1 °F 26% 30.21 in 10.0 mi Calm Calm - N/A   Scattered Clouds
2:53 PM 82.9 °F 42.1 °F 24% 30.19 in 10.0 mi Variable 3.5 mph - N/A   Clear
3:53 PM 84.9 °F 42.1 °F 22% 30.17 in 10.0 mi North - - N/A   Clear
4:53 PM 82.9 °F 42.1 °F 24% 30.17 in 10.0 mi Calm Calm - N/A   Clear
5:53 PM 84.2 °F 42.8 °F 23% 30.17 in 10.0 mi Variable 3.5 mph - N/A   Clear
6:53 PM 82.0 °F 45.0 °F 27% 30.16 in 10.0 mi East 10.4 mph - N/A   Clear
7:53 PM 79.0 °F 45.0 °F 30% 30.17 in 10.0 mi East 8.1 mph - N/A   Clear
8:53 PM 71.1 °F 46.0 °F 41% 30.18 in 10.0 mi ESE 3.5 mph - N/A   Clear
10:53 PM 64.9 °F 46.9 °F 52% 30.20 in 10.0 mi East 9.2 mph - N/A   Clear
11:53 PM 62.1 °F 46.0 °F 56% 30.21 in 10.0 mi ENE 5.8 mph - N/A   Clear